Retour au catalogue

STARLINK-37198

ActifCommunicationsSSO
NORAD 68386·PAYLOAD·🇺🇸 United States

Lancé Mar 26, 2026 depuis Vandenberg Space Force Base

Loading…

Prochains Passages (prochaines 24 heures)

TLE

FraisSource: CelesTrak SupGP

Époque: Sep 14, 2026, 21:32 UTC

1 68386C 26063G   26257.89770833  .00016726  00000+0  51897-3 0  2576
2 68386  97.2859  38.9221 0000906 102.7738 327.9258 15.33446338    18

Suivez STARLINK-37198 en temps réel avec AllMySat

Download on the App Store